Time,TemperatureF,DewpointF,PressureIn,WindDirection,WindDirectionDegrees,WindSpeedMPH,WindSpeedGustMPH,Humidity,HourlyPrecipIn,Conditions,Clouds,dailyrainin,SoftwareType,DateUTC
2013-01-31 00:00:00,47.5,43.5,29.18,West,276,6.0,28.0,86,0.11,,---,0.40,VWS V14.00,2013-01-31 05:00:00,
2013-01-31 00:13:00,46.6,42.3,29.20,NW,324,13.0,19.0,85,0.10,,---,0.01,VWS V14.00,2013-01-31 05:13:00,
2013-01-31 00:21:00,43.0,39.1,29.22,WNW,296,11.0,19.0,86,0.12,,---,0.03,VWS V14.00,2013-01-31 05:21:00,
2013-01-31 00:29:00,41.3,38.0,29.22,NNW,329,8.0,19.0,88,0.14,,---,0.05,VWS V14.00,2013-01-31 05:29:00,
2013-01-31 00:37:00,40.1,37.1,29.22,NW,315,10.0,16.0,89,0.13,,---,0.05,VWS V14.00,2013-01-31 05:37:00,
2013-01-31 00:45:00,39.2,36.0,29.20,WNW,296,7.0,16.0,88,0.15,,---,0.07,VWS V14.00,2013-01-31 05:45:00,
2013-01-31 00:53:00,38.3,35.3,29.21,NW,312,7.0,16.0,89,0.16,,---,0.08,VWS V14.00,2013-01-31 05:53:00,
2013-01-31 01:00:00,37.4,34.5,29.22,WNW,298,8.0,20.0,89,0.17,,---,0.09,VWS V14.00,2013-01-31 06:00:00,
2013-01-31 01:09:00,36.8,33.9,29.24,West,271,9.0,29.0,89,0.10,,---,0.10,VWS V14.00,2013-01-31 06:09:00,
2013-01-31 01:17:00,36.3,33.4,29.24,WNW,294,3.0,29.0,89,0.10,,---,0.10,VWS V14.00,2013-01-31 06:17:00,
2013-01-31 01:25:00,36.1,33.2,29.24,WNW,298,4.0,29.0,89,0.11,,---,0.11,VWS V14.00,2013-01-31 06:25:00,
2013-01-31 01:30:00,35.9,33.0,29.24,NW,321,4.0,29.0,89,0.11,,---,0.11,VWS V14.00,2013-01-31 06:30:00,
2013-01-31 01:41:00,35.7,32.8,29.22,WSW,242,12.0,23.0,89,0.06,,---,0.11,VWS V14.00,2013-01-31 06:41:00,
2013-01-31 01:49:00,35.7,32.8,29.22,NW,313,2.0,23.0,89,0.06,,---,0.11,VWS V14.00,2013-01-31 06:49:00,
2013-01-31 01:57:00,35.7,32.8,29.22,WSW,251,6.0,23.0,89,0.06,,---,0.11,VWS V14.00,2013-01-31 06:57:00,
2013-01-31 02:05:00,35.7,32.5,29.23,NW,315,7.0,18.0,88,0.02,,---,0.11,VWS V14.00,2013-01-31 07:05:00,
2013-01-31 02:13:00,35.3,32.1,29.23,WNW,289,3.0,21.0,88,0.02,,---,0.11,VWS V14.00,2013-01-31 07:13:00,
2013-01-31 02:21:00,34.7,31.5,29.25,West,281,14.0,27.0,88,0.02,,---,0.11,VWS V14.00,2013-01-31 07:21:00,
2013-01-31 02:29:00,34.5,31.6,29.25,WNW,292,5.0,27.0,89,0.02,,---,0.11,VWS V14.00,2013-01-31 07:29:00,
2013-01-31 02:37:00,34.3,31.4,29.26,WSW,243,7.0,19.0,89,0.00,,---,0.11,VWS V14.00,2013-01-31 07:37:00,
2013-01-31 02:45:00,33.8,30.9,29.27,NW,317,10.0,27.0,89,0.00,,---,0.11,VWS V14.00,2013-01-31 07:45:00,
2013-01-31 02:53:00,33.4,30.5,29.28,WSW,255,10.0,27.0,89,0.00,,---,0.11,VWS V14.00,2013-01-31 07:53:00,
2013-01-31 03:00:00,33.3,30.7,29.28,WNW,300,5.0,27.0,90,0.00,,---,0.11,VWS V14.00,2013-01-31 08:00:00,
2013-01-31 03:09:00,33.1,30.5,29.26,WNW,291,10.0,15.0,90,0.00,,---,0.11,VWS V14.00,2013-01-31 08:09:00,
2013-01-31 03:17:00,33.0,30.4,29.26,SW,217,9.0,15.0,90,0.00,,---,0.11,VWS V14.00,2013-01-31 08:17:00,
2013-01-31 03:25:00,32.8,30.2,29.27,West,267,2.0,19.0,90,0.00,,---,0.11,VWS V14.00,2013-01-31 08:25:00,
2013-01-31 03:33:00,32.9,30.3,29.27,WNW,283,15.0,15.0,90,0.00,,---,0.11,VWS V14.00,2013-01-31 08:33:00,
2013-01-31 03:41:00,32.5,30.2,29.29,NW,321,13.0,22.0,91,0.00,,---,0.11,VWS V14.00,2013-01-31 08:41:00,
2013-01-31 03:49:00,31.5,28.9,29.30,WSW,239,11.0,22.0,90,0.00,,---,0.11,VWS V14.00,2013-01-31 08:49:00,
2013-01-31 03:57:00,30.8,28.0,29.30,WSW,254,12.0,22.0,89,0.00,,---,0.11,VWS V14.00,2013-01-31 08:57:00,
2013-01-31 04:05:00,30.8,27.4,29.31,West,276,11.0,31.0,87,0.00,,---,0.11,VWS V14.00,2013-01-31 09:05:00,
2013-01-31 04:13:00,30.7,26.7,29.31,SW,224,6.0,31.0,85,0.00,,---,0.11,VWS V14.00,2013-01-31 09:13:00,
2013-01-31 04:21:00,30.6,26.6,29.32,WNW,296,9.0,31.0,85,0.00,,---,0.11,VWS V14.00,2013-01-31 09:21:00,
2013-01-31 04:29:00,30.5,26.2,29.34,WSW,243,9.0,31.0,84,0.00,,---,0.11,VWS V14.00,2013-01-31 09:29:00,
2013-01-31 04:37:00,30.0,24.3,29.35,WNW,294,11.0,31.0,79,0.00,,---,0.11,VWS V14.00,2013-01-31 09:37:00,
2013-01-31 04:45:00,29.7,23.7,29.35,NW,316,6.0,31.0,78,0.00,,---,0.11,VWS V14.00,2013-01-31 09:45:00,
2013-01-31 04:53:00,29.5,23.5,29.35,SSW,208,7.0,31.0,78,0.00,,---,0.11,VWS V14.00,2013-01-31 09:53:00,
2013-01-31 05:00:00,29.4,23.1,29.36,West,263,8.0,31.0,77,0.00,,---,0.11,VWS V14.00,2013-01-31 10:00:00,
2013-01-31 05:09:00,29.1,23.4,29.37,NNW,341,8.0,29.0,79,0.00,,---,0.11,VWS V14.00,2013-01-31 10:09:00,
2013-01-31 05:17:00,28.9,23.2,29.38,WNW,287,17.0,29.0,79,0.00,,---,0.11,VWS V14.00,2013-01-31 10:17:00,
2013-01-31 05:25:00,28.6,23.2,29.38,West,265,15.0,29.0,80,0.00,,---,0.11,VWS V14.00,2013-01-31 10:25:00,
2013-01-31 05:33:00,27.9,23.4,29.39,WNW,292,11.0,19.0,83,0.00,,---,0.11,VWS V14.00,2013-01-31 10:33:00,
2013-01-31 05:41:00,28.0,22.3,29.39,SW,236,6.0,26.0,79,0.00,,---,0.11,VWS V14.00,2013-01-31 10:41:00,
2013-01-31 05:49:00,28.1,22.1,29.40,NNW,327,10.0,30.0,78,0.00,,---,0.11,VWS V14.00,2013-01-31 10:49:00,
2013-01-31 05:57:00,28.1,21.5,29.41,WNW,282,21.0,30.0,76,0.00,,---,0.11,VWS V14.00,2013-01-31 10:57:00,
2013-01-31 06:05:00,28.1,21.5,29.40,West,263,14.0,25.0,76,0.00,,---,0.11,VWS V14.00,2013-01-31 11:05:00,
2013-01-31 06:13:00,28.1,21.5,29.41,WNW,286,4.0,25.0,76,0.00,,---,0.11,VWS V14.00,2013-01-31 11:13:00,
2013-01-31 06:21:00,28.1,21.5,29.42,WNW,295,3.0,25.0,76,0.00,,---,0.11,VWS V14.00,2013-01-31 11:21:00,
2013-01-31 06:30:00,28.0,21.7,29.42,West,262,13.0,25.0,77,0.00,,---,0.11,VWS V14.00,2013-01-31 11:30:00,
2013-01-31 06:38:00,27.7,21.4,29.43,West,269,11.0,20.0,77,0.00,,---,0.11,VWS V14.00,2013-01-31 11:38:00,
2013-01-31 06:46:00,27.5,22.1,29.43,WNW,300,8.0,22.0,80,0.00,,---,0.11,VWS V14.00,2013-01-31 11:46:00,
2013-01-31 06:54:00,27.5,21.9,29.44,WNW,302,6.0,25.0,79,0.00,,---,0.11,VWS V14.00,2013-01-31 11:54:00,
2013-01-31 07:00:00,27.6,21.6,29.44,NW,319,8.0,25.0,78,0.00,,---,0.11,VWS V14.00,2013-01-31 12:00:00,
2013-01-31 07:10:00,27.7,21.1,29.46,WNW,302,10.0,32.0,76,0.00,,---,0.11,VWS V14.00,2013-01-31 12:10:00,
2013-01-31 07:18:00,27.6,21.0,29.45,WNW,300,11.0,32.0,76,0.00,,---,0.11,VWS V14.00,2013-01-31 12:18:00,
2013-01-31 07:26:00,27.4,21.1,29.46,West,259,13.0,32.0,77,0.00,,---,0.11,VWS V14.00,2013-01-31 12:26:00,
2013-01-31 07:34:00,27.5,21.2,29.47,WNW,301,9.0,18.0,77,0.00,,---,0.11,VWS V14.00,2013-01-31 12:34:00,
2013-01-31 07:42:00,27.0,22.2,29.48,WNW,298,14.0,19.0,82,0.00,,---,0.11,VWS V14.00,2013-01-31 12:42:00,
2013-01-31 07:50:00,26.8,22.0,29.48,West,277,10.0,26.0,82,0.00,,---,0.11,VWS V14.00,2013-01-31 12:50:00,
2013-01-31 07:58:00,26.3,22.4,29.49,WNW,284,15.0,26.0,85,0.00,,---,0.11,VWS V14.00,2013-01-31 12:58:00,
2013-01-31 08:06:00,25.8,22.5,29.50,SW,219,7.0,17.0,87,0.00,,---,0.11,VWS V14.00,2013-01-31 13:06:00,
2013-01-31 08:14:00,26.0,22.4,29.50,SSE,167,11.0,18.0,86,0.00,,---,0.11,VWS V14.00,2013-01-31 13:14:00,
2013-01-31 08:22:00,25.6,22.3,29.51,WNW,286,9.0,22.0,87,0.00,,---,0.11,VWS V14.00,2013-01-31 13:22:00,
2013-01-31 08:30:00,25.3,22.0,29.51,WSW,255,14.0,30.0,87,0.00,,---,0.11,VWS V14.00,2013-01-31 13:30:00,
2013-01-31 08:38:00,25.3,21.1,29.52,WNW,296,8.0,23.0,84,0.00,,---,0.11,VWS V14.00,2013-01-31 13:38:00,
2013-01-31 08:46:00,25.7,20.7,29.53,West,263,6.0,23.0,81,0.00,,---,0.11,VWS V14.00,2013-01-31 13:46:00,
2013-01-31 08:54:00,25.7,20.4,29.53,West,263,6.0,23.0,80,0.00,,---,0.11,VWS V14.00,2013-01-31 13:54:00,
2013-01-31 09:00:00,25.8,20.2,29.54,West,263,6.0,23.0,79,0.00,,---,0.11,VWS V14.00,2013-01-31 14:00:00,
2013-01-31 09:10:00,24.7,21.4,29.55,West,263,6.0,6.0,87,0.00,,---,0.11,VWS V14.00,2013-01-31 14:10:00,
2013-01-31 09:18:00,24.6,20.7,29.55,SW,230,7.0,25.0,85,0.00,,---,0.11,VWS V14.00,2013-01-31 14:18:00,
2013-01-31 09:26:00,24.6,20.2,29.56,West,271,15.0,26.0,83,0.00,,---,0.11,VWS V14.00,2013-01-31 14:26:00,
2013-01-31 09:34:00,23.5,20.5,29.57,WNW,301,4.0,16.0,88,0.00,,---,0.11,VWS V14.00,2013-01-31 14:34:00,
2013-01-31 09:42:00,23.3,20.5,29.57,WNW,293,8.0,23.0,89,0.00,,---,0.11,VWS V14.00,2013-01-31 14:42:00,
2013-01-31 09:50:00,23.6,20.3,29.57,WNW,299,8.0,23.0,87,0.00,,---,0.11,VWS V14.00,2013-01-31 14:50:00,
2013-01-31 09:58:00,24.0,20.4,29.57,NW,320,8.0,23.0,86,0.00,,---,0.11,VWS V14.00,2013-01-31 14:58:00,
2013-01-31 10:06:00,24.3,19.9,29.58,WNW,288,5.0,23.0,83,0.00,,---,0.11,VWS V14.00,2013-01-31 15:06:00,
2013-01-31 10:14:00,24.7,19.4,29.58,SW,236,20.0,24.0,80,0.00,,---,0.11,VWS V14.00,2013-01-31 15:14:00,
2013-01-31 10:22:00,25.0,18.8,29.58,WNW,284,10.0,24.0,77,0.00,,---,0.11,VWS V14.00,2013-01-31 15:22:00,
2013-01-31 10:30:00,25.2,18.4,29.58,SW,228,22.0,24.0,75,0.00,,---,0.11,VWS V14.00,2013-01-31 15:30:00,
2013-01-31 10:38:00,25.4,18.3,29.58,WNW,303,9.0,20.0,74,0.00,,---,0.11,VWS V14.00,2013-01-31 15:38:00,
2013-01-31 10:46:00,25.1,18.3,29.59,West,277,7.0,24.0,75,0.00,,---,0.11,VWS V14.00,2013-01-31 15:46:00,
2013-01-31 10:54:00,24.7,19.1,29.59,WSW,244,9.0,24.0,79,0.00,,---,0.11,VWS V14.00,2013-01-31 15:54:00,
2013-01-31 11:00:00,24.6,18.1,29.60,WSW,244,22.0,28.0,76,0.00,,---,0.11,VWS V14.00,2013-01-31 16:00:00,
2013-01-31 11:10:00,24.6,17.5,29.61,WSW,242,7.0,33.0,74,0.00,,---,0.11,VWS V14.00,2013-01-31 16:10:00,
2013-01-31 11:18:00,24.5,17.1,29.61,NW,313,7.0,33.0,73,0.00,,---,0.11,VWS V14.00,2013-01-31 16:18:00,
2013-01-31 11:26:00,24.7,17.0,29.61,West,263,16.0,33.0,72,0.00,,---,0.11,VWS V14.00,2013-01-31 16:26:00,
2013-01-31 11:34:00,24.1,17.0,29.62,South,176,9.0,25.0,74,0.00,,---,0.11,VWS V14.00,2013-01-31 16:34:00,
2013-01-31 11:42:00,24.2,17.4,29.61,West,259,26.0,26.0,75,0.00,,---,0.11,VWS V14.00,2013-01-31 16:42:00,
2013-01-31 11:50:00,24.6,17.8,29.62,West,281,7.0,26.0,75,0.00,,---,0.11,VWS V14.00,2013-01-31 16:50:00,
2013-01-31 11:58:00,25.4,18.6,29.62,SSW,200,10.0,26.0,75,0.00,,---,0.11,VWS V14.00,2013-01-31 16:58:00,
2013-01-31 12:06:00,24.6,17.2,29.63,SW,220,22.0,22.0,73,0.00,,---,0.11,VWS V14.00,2013-01-31 17:06:00,
2013-01-31 12:14:00,23.7,17.9,29.64,WNW,295,8.0,23.0,78,0.00,,---,0.11,VWS V14.00,2013-01-31 17:14:00,
2013-01-31 12:22:00,23.0,18.0,29.64,West,271,7.0,24.0,81,0.00,,---,0.11,VWS V14.00,2013-01-31 17:22:00,
2013-01-31 12:30:00,23.0,20.2,29.64,West,262,6.0,24.0,89,0.00,,---,0.11,VWS V14.00,2013-01-31 17:30:00,
2013-01-31 12:38:00,23.3,18.6,29.65,SW,227,10.0,19.0,82,0.00,,---,0.11,VWS V14.00,2013-01-31 17:38:00,
2013-01-31 12:46:00,23.5,17.7,29.64,NW,320,9.0,20.0,78,0.00,,---,0.11,VWS V14.00,2013-01-31 17:46:00,
2013-01-31 12:54:00,23.8,17.4,29.65,West,267,15.0,23.0,76,0.00,,---,0.11,VWS V14.00,2013-01-31 17:54:00,
2013-01-31 13:00:00,23.8,17.0,29.65,WNW,301,8.0,23.0,75,0.00,,---,0.11,VWS V14.00,2013-01-31 18:00:00,
2013-01-31 13:10:00,23.4,18.7,29.66,NW,310,3.0,15.0,82,0.00,,---,0.11,VWS V14.00,2013-01-31 18:10:00,
2013-01-31 13:18:00,22.6,18.8,29.66,West,264,13.0,21.0,85,0.00,,---,0.11,VWS V14.00,2013-01-31 18:18:00,
2013-01-31 13:26:00,21.8,18.5,29.66,WSW,256,7.0,26.0,87,0.00,,---,0.11,VWS V14.00,2013-01-31 18:26:00,
2013-01-31 13:34:00,22.3,19.3,29.66,WNW,295,4.0,11.0,88,0.00,,---,0.11,VWS V14.00,2013-01-31 18:34:00,
2013-01-31 13:42:00,22.1,19.1,29.67,WNW,285,10.0,12.0,88,0.00,,---,0.11,VWS V14.00,2013-01-31 18:42:00,
2013-01-31 13:50:00,21.6,18.6,29.67,WNW,289,7.0,16.0,88,0.00,,---,0.11,VWS V14.00,2013-01-31 18:50:00,
2013-01-31 13:58:00,21.7,19.0,29.67,West,263,8.0,21.0,89,0.00,,---,0.11,VWS V14.00,2013-01-31 18:58:00,
2013-01-31 14:06:00,22.0,18.7,29.68,West,280,8.0,18.0,87,0.00,,---,0.11,VWS V14.00,2013-01-31 19:06:00,
2013-01-31 14:14:00,22.4,18.6,29.68,West,266,7.0,18.0,85,0.00,,---,0.11,VWS V14.00,2013-01-31 19:14:00,
2013-01-31 14:22:00,22.3,17.4,29.68,NNW,331,5.0,21.0,81,0.00,,---,0.11,VWS V14.00,2013-01-31 19:22:00,
2013-01-31 14:30:00,22.5,17.9,29.69,West,261,6.0,21.0,82,0.00,,---,0.11,VWS V14.00,2013-01-31 19:30:00,
2013-01-31 14:39:00,21.9,17.8,29.69,WSW,250,3.0,19.0,84,0.00,,---,0.11,VWS V14.00,2013-01-31 19:39:00,
2013-01-31 14:47:00,21.8,18.0,29.70,WSW,238,11.0,19.0,85,0.00,,---,0.11,VWS V14.00,2013-01-31 19:47:00,
2013-01-31 14:55:00,21.6,16.4,29.70,WNW,293,7.0,28.0,80,0.00,,---,0.11,VWS V14.00,2013-01-31 19:55:00,
2013-01-31 15:00:00,21.7,15.9,29.71,NNE,13,3.0,28.0,78,0.00,,---,0.11,VWS V14.00,2013-01-31 20:00:00,
2013-01-31 15:11:00,21.9,16.7,29.72,WNW,299,6.0,18.0,80,0.00,,---,0.11,VWS V14.00,2013-01-31 20:11:00,
2013-01-31 15:19:00,21.4,17.0,29.72,WNW,299,14.0,22.0,83,0.00,,---,0.11,VWS V14.00,2013-01-31 20:19:00,
2013-01-31 15:27:00,21.3,17.0,29.72,WNW,292,7.0,22.0,83,0.00,,---,0.11,VWS V14.00,2013-01-31 20:27:00,
2013-01-31 15:35:00,21.1,16.5,29.73,West,279,3.0,18.0,82,0.00,,---,0.11,VWS V14.00,2013-01-31 20:35:00,
2013-01-31 15:43:00,21.1,16.2,29.73,WSW,249,9.0,18.0,81,0.00,,---,0.11,VWS V14.00,2013-01-31 20:43:00,
2013-01-31 15:51:00,20.9,15.4,29.74,NNW,333,4.0,21.0,79,0.00,,---,0.11,VWS V14.00,2013-01-31 20:51:00,
2013-01-31 15:59:00,20.7,15.2,29.74,WNW,291,7.0,24.0,79,0.00,,---,0.11,VWS V14.00,2013-01-31 20:59:00,
2013-01-31 16:07:00,20.6,14.6,29.74,WNW,288,6.0,16.0,77,0.00,,---,0.11,VWS V14.00,2013-01-31 21:07:00,
2013-01-31 16:15:00,20.7,14.9,29.74,WNW,299,9.0,22.0,78,0.00,,---,0.11,VWS V14.00,2013-01-31 21:15:00,
2013-01-31 16:23:00,20.4,15.5,29.75,SW,227,8.0,22.0,81,0.00,,---,0.11,VWS V14.00,2013-01-31 21:23:00,
2013-01-31 16:30:00,20.3,15.1,29.75,WSW,255,15.0,22.0,80,0.00,,---,0.11,VWS V14.00,2013-01-31 21:30:00,
2013-01-31 16:39:00,20.0,15.1,29.76,WNW,294,4.0,23.0,81,0.00,,---,0.11,VWS V14.00,2013-01-31 21:39:00,
2013-01-31 16:47:00,19.9,15.6,29.77,WSW,256,6.0,23.0,83,0.00,,---,0.11,VWS V14.00,2013-01-31 21:47:00,
2013-01-31 16:55:00,19.6,15.6,29.77,WNW,286,8.0,23.0,84,0.00,,---,0.11,VWS V14.00,2013-01-31 21:55:00,
2013-01-31 17:00:00,19.5,15.2,29.78,SW,214,17.0,26.0,83,0.00,,---,0.11,VWS V14.00,2013-01-31 22:00:00,
2013-01-31 17:11:00,19.5,15.2,29.78,SW,235,3.0,19.0,83,0.00,,---,0.11,VWS V14.00,2013-01-31 22:11:00,
2013-01-31 17:19:00,19.5,15.7,29.78,West,267,10.0,19.0,85,0.00,,---,0.11,VWS V14.00,2013-01-31 22:19:00,
2013-01-31 17:27:00,19.5,15.5,29.78,WNW,296,7.0,19.0,84,0.00,,---,0.11,VWS V14.00,2013-01-31 22:27:00,
2013-01-31 17:35:00,19.3,15.3,29.78,West,272,5.0,17.0,84,0.00,,---,0.11,VWS V14.00,2013-01-31 22:35:00,
2013-01-31 17:43:00,19.3,15.5,29.79,West,277,10.0,17.0,85,0.00,,---,0.11,VWS V14.00,2013-01-31 22:43:00,
2013-01-31 17:51:00,19.1,15.3,29.80,WSW,251,5.0,20.0,85,0.00,,---,0.11,VWS V14.00,2013-01-31 22:51:00,
2013-01-31 17:59:00,19.0,15.2,29.80,SW,224,4.0,20.0,85,0.00,,---,0.11,VWS V14.00,2013-01-31 22:59:00,
2013-01-31 18:07:00,18.9,15.1,29.81,West,263,5.0,15.0,85,0.00,,---,0.11,VWS V14.00,2013-01-31 23:07:00,
2013-01-31 18:15:00,18.9,15.4,29.81,WNW,287,3.0,15.0,86,0.00,,---,0.11,VWS V14.00,2013-01-31 23:15:00,
2013-01-31 18:23:00,18.9,15.4,29.82,West,279,9.0,15.0,86,0.00,,---,0.11,VWS V14.00,2013-01-31 23:23:00,
2013-01-31 18:30:00,18.9,15.4,29.82,WNW,299,4.0,15.0,86,0.00,,---,0.11,VWS V14.00,2013-01-31 23:30:00,
2013-01-31 18:39:00,18.9,15.4,29.82,SW,231,4.0,17.0,86,0.00,,---,0.11,VWS V14.00,2013-01-31 23:39:00,
2013-01-31 18:47:00,19.0,15.2,29.82,WSW,239,4.0,17.0,85,0.00,,---,0.11,VWS V14.00,2013-01-31 23:47:00,
2013-01-31 18:55:00,19.1,15.3,29.82,West,264,11.0,17.0,85,0.00,,---,0.11,VWS V14.00,2013-01-31 23:55:00,
2013-01-31 19:00:00,19.0,15.5,29.82,NW,317,2.0,17.0,86,0.00,,---,0.11,VWS V14.00,2013-02-01 00:00:00,
2013-01-31 19:11:00,18.9,15.7,29.83,SW,229,3.0,13.0,87,0.00,,---,0.11,VWS V14.00,2013-02-01 00:11:00,
2013-01-31 19:19:00,18.9,15.7,29.83,SW,216,4.0,13.0,87,0.00,,---,0.11,VWS V14.00,2013-02-01 00:19:00,
2013-01-31 19:27:00,18.8,15.8,29.83,WSW,243,2.0,13.0,88,0.00,,---,0.11,VWS V14.00,2013-02-01 00:27:00,
2013-01-31 19:35:00,18.8,15.8,29.83,WNW,288,4.0,6.0,88,0.00,,---,0.11,VWS V14.00,2013-02-01 00:35:00,
2013-01-31 19:43:00,18.9,15.9,29.83,SW,232,2.0,7.0,88,0.00,,---,0.11,VWS V14.00,2013-02-01 00:43:00,
2013-01-31 19:51:00,18.9,15.9,29.84,SSW,204,2.0,8.0,88,0.00,,---,0.11,VWS V14.00,2013-02-01 00:51:00,
2013-01-31 19:59:00,19.0,16.0,29.84,WNW,294,4.0,8.0,88,0.00,,---,0.11,VWS V14.00,2013-02-01 00:59:00,
2013-01-31 20:07:00,19.0,16.0,29.84,West,274,3.0,9.0,88,0.00,,---,0.11,VWS V14.00,2013-02-01 01:07:00,
2013-01-31 20:15:00,19.0,16.0,29.84,SSW,210,7.0,9.0,88,0.00,,---,0.11,VWS V14.00,2013-02-01 01:15:00,
2013-01-31 20:23:00,19.1,16.1,29.84,West,259,5.0,9.0,88,0.00,,---,0.11,VWS V14.00,2013-02-01 01:23:00,
2013-01-31 20:30:00,19.1,16.1,29.84,SSW,213,3.0,9.0,88,0.00,,---,0.11,VWS V14.00,2013-02-01 01:30:00,
2013-01-31 20:39:00,19.1,16.1,29.84,WNW,286,5.0,9.0,88,0.00,,---,0.11,VWS V14.00,2013-02-01 01:39:00,
2013-01-31 20:47:00,19.1,16.1,29.85,NW,305,6.0,17.0,88,0.00,,---,0.11,VWS V14.00,2013-02-01 01:47:00,
2013-01-31 20:55:00,19.1,16.1,29.84,NW,319,6.0,18.0,88,0.00,,---,0.11,VWS V14.00,2013-02-01 01:55:00,
2013-01-31 21:03:00,19.1,15.9,29.85,NNW,335,5.0,9.0,87,0.00,,---,0.11,VWS V14.00,2013-02-01 02:03:00,
2013-01-31 21:11:00,19.1,15.9,29.85,WSW,248,5.0,12.0,87,0.00,,---,0.11,VWS V14.00,2013-02-01 02:11:00,
2013-01-31 21:19:00,19.1,15.9,29.85,WSW,242,4.0,12.0,87,0.00,,---,0.11,VWS V14.00,2013-02-01 02:19:00,
2013-01-31 21:27:00,19.0,15.5,29.86,SW,234,3.0,15.0,86,0.00,,---,0.11,VWS V14.00,2013-02-01 02:27:00,
2013-01-31 21:35:00,19.0,15.5,29.86,West,260,3.0,13.0,86,0.00,,---,0.11,VWS V14.00,2013-02-01 02:35:00,
2013-01-31 21:43:00,18.8,15.3,29.86,West,280,5.0,13.0,86,0.00,,---,0.11,VWS V14.00,2013-02-01 02:43:00,
2013-01-31 21:51:00,18.5,15.0,29.86,SW,219,3.0,13.0,86,0.00,,---,0.11,VWS V14.00,2013-02-01 02:51:00,
2013-01-31 21:59:00,18.4,14.9,29.87,West,269,7.0,13.0,86,0.00,,---,0.11,VWS V14.00,2013-02-01 02:59:00,
2013-01-31 22:07:00,18.6,15.1,29.87,WNW,303,2.0,13.0,86,0.00,,---,0.11,VWS V14.00,2013-02-01 03:07:00,
2013-01-31 22:15:00,18.5,15.3,29.88,West,278,9.0,13.0,87,0.00,,---,0.11,VWS V14.00,2013-02-01 03:15:00,
2013-01-31 22:23:00,18.5,15.3,29.88,West,261,4.0,13.0,87,0.00,,---,0.11,VWS V14.00,2013-02-01 03:23:00,
2013-01-31 22:30:00,18.4,15.2,29.88,West,267,3.0,13.0,87,0.00,,---,0.11,VWS V14.00,2013-02-01 03:30:00,
2013-01-31 22:39:00,18.5,15.3,29.88,WSW,245,10.0,10.0,87,0.00,,---,0.11,VWS V14.00,2013-02-01 03:39:00,
2013-01-31 22:48:00,18.5,15.3,29.88,WNW,285,5.0,12.0,87,0.00,,---,0.11,VWS V14.00,2013-02-01 03:48:00,
2013-01-31 22:56:00,18.4,15.2,29.89,West,280,4.0,12.0,87,0.00,,---,0.11,VWS V14.00,2013-02-01 03:56:00,
2013-01-31 23:04:00,18.3,15.4,29.89,WSW,242,2.0,9.0,88,0.00,,---,0.11,VWS V14.00,2013-02-01 04:04:00,
2013-01-31 23:12:00,18.2,15.2,29.89,NW,318,2.0,11.0,88,0.00,,---,0.11,VWS V14.00,2013-02-01 04:12:00,
2013-01-31 23:20:00,18.2,15.2,29.89,West,269,2.0,11.0,88,0.00,,---,0.11,VWS V14.00,2013-02-01 04:20:00,
2013-01-31 23:28:00,17.9,14.7,29.89,NW,306,2.0,15.0,87,0.00,,---,0.11,VWS V14.00,2013-02-01 04:28:00,
2013-01-31 23:36:00,17.7,14.0,29.89,West,269,3.0,18.0,85,0.00,,---,0.11,VWS V14.00,2013-02-01 04:36:00,
2013-01-31 23:44:00,17.5,13.5,29.89,SW,219,4.0,18.0,84,0.00,,---,0.11,VWS V14.00,2013-02-01 04:44:00,
2013-01-31 23:52:00,17.5,13.8,29.89,SW,236,6.0,18.0,85,0.00,,---,0.11,VWS V14.00,2013-02-01 04:52:00,